Time,TemperatureF,DewpointF,PressureIn,WindDirection,WindDirectionDegrees,WindSpeedMPH,WindSpeedGustMPH,Humidity,HourlyPrecipIn,Conditions,Clouds,dailyrainin,SoftwareType,DateUTC
2013-03-13 00:03:00,50.0,26.0,-100.00,North,0,4.0,6.0,40,-99.99,,,-99.99,,2013-03-13 04:03:00,
2013-03-13 00:13:00,50.0,26.0,-100.00,North,355,1.0,6.0,40,-99.99,,,-99.99,,2013-03-13 04:13:00,
2013-03-13 00:23:00,50.0,26.0,-100.00,NW,325,2.0,6.0,40,-99.99,,,-99.99,,2013-03-13 04:23:00,
2013-03-13 00:32:00,49.0,27.0,-100.00,NW,305,2.0,5.0,41,-99.99,,,-99.99,,2013-03-13 04:32:00,
2013-03-13 00:43:00,49.0,27.0,-100.00,NW,315,3.0,6.0,42,-99.99,,,-99.99,,2013-03-13 04:43:00,
2013-03-13 00:53:00,49.0,27.0,-100.00,NW,315,4.0,5.0,42,-99.99,,,-99.99,,2013-03-13 04:53:00,
2013-03-13 01:02:00,48.0,27.0,-100.00,NNW,335,2.0,6.0,43,-99.99,,,-99.99,,2013-03-13 05:02:00,
2013-03-13 01:13:00,48.0,27.0,-100.00,West,280,1.0,4.0,44,-99.99,,,-99.99,,2013-03-13 05:13:00,
2013-03-13 01:22:00,47.0,27.0,-100.00,West,280,1.0,2.0,45,-99.99,,,-99.99,,2013-03-13 05:22:00,
2013-03-13 01:32:00,47.0,27.0,-100.00,West,270,1.0,3.0,45,-99.99,,,-99.99,,2013-03-13 05:32:00,
2013-03-13 01:42:00,47.0,27.0,-100.00,NW,305,1.0,4.0,45,-99.99,,,-99.99,,2013-03-13 05:42:00,
2013-03-13 01:52:00,48.0,26.0,-100.00,NW,320,4.0,7.0,43,-99.99,,,-99.99,,2013-03-13 05:52:00,
2013-03-13 02:02:00,48.0,26.0,-100.00,NW,315,4.0,6.0,43,-99.99,,,-99.99,,2013-03-13 06:02:00,
2013-03-13 02:13:00,47.0,26.0,-100.00,NW,310,4.0,9.0,43,-99.99,,,-99.99,,2013-03-13 06:13:00,
2013-03-13 02:23:00,47.0,26.0,-100.00,SW,230,1.0,6.0,44,-99.99,,,-99.99,,2013-03-13 06:23:00,
2013-03-13 02:32:00,46.0,26.0,-100.00,WSW,250,1.0,4.0,45,-99.99,,,-99.99,,2013-03-13 06:32:00,
2013-03-13 02:42:00,45.0,27.0,-100.00,SSW,205,0.0,2.0,49,-99.99,,,-99.99,,2013-03-13 06:42:00,
2013-03-13 02:52:00,45.0,27.0,-100.00,West,280,1.0,4.0,50,-99.99,,,-99.99,,2013-03-13 06:52:00,
2013-03-13 03:03:00,45.0,27.0,-100.00,NW,320,1.0,4.0,49,-99.99,,,-99.99,,2013-03-13 07:03:00,
2013-03-13 03:12:00,46.0,27.0,-100.00,NW,305,0.0,6.0,47,-99.99,,,-99.99,,2013-03-13 07:12:00,
2013-03-13 03:23:00,46.0,26.0,-100.00,NNW,335,4.0,5.0,46,-99.99,,,-99.99,,2013-03-13 07:23:00,
2013-03-13 03:33:00,46.0,26.0,-100.00,North,355,1.0,4.0,46,-99.99,,,-99.99,,2013-03-13 07:33:00,
2013-03-13 03:42:00,45.0,26.0,-100.00,West,270,2.0,4.0,47,-99.99,,,-99.99,,2013-03-13 07:42:00,
2013-03-13 03:52:00,45.0,26.0,-100.00,NW,325,1.0,4.0,48,-99.99,,,-99.99,,2013-03-13 07:52:00,
2013-03-13 04:03:00,45.0,27.0,-100.00,WNW,300,1.0,4.0,49,-99.99,,,-99.99,,2013-03-13 08:03:00,
2013-03-13 04:12:00,44.0,27.0,-100.00,WSW,255,0.0,2.0,50,-99.99,,,-99.99,,2013-03-13 08:12:00,
2013-03-13 04:23:00,44.0,26.0,-100.00,WNW,290,0.0,4.0,50,-99.99,,,-99.99,,2013-03-13 08:23:00,
2013-03-13 04:32:00,43.0,26.0,-100.00,West,265,1.0,2.0,51,-99.99,,,-99.99,,2013-03-13 08:32:00,
2013-03-13 04:40:00,42.0,29.0,-100.00,West,265,0.0,4.0,60,-99.99,,,-99.99,,2013-03-13 08:40:00,
2013-03-13 04:43:00,43.0,27.0,-100.00,West,280,1.0,4.0,53,-99.99,,,-99.99,,2013-03-13 08:43:00,
2013-03-13 04:53:00,43.0,28.0,-100.00,West,270,1.0,4.0,56,-99.99,,,-99.99,,2013-03-13 08:53:00,
2013-03-13 05:02:00,42.0,29.0,-100.00,NNW,330,1.0,2.0,58,-99.99,,,-99.99,,2013-03-13 09:02:00,
2013-03-13 05:13:00,42.0,29.0,-100.00,West,265,0.0,4.0,60,-99.99,,,-99.99,,2013-03-13 09:13:00,
2013-03-13 05:23:00,42.0,29.0,-100.00,West,265,0.0,4.0,60,-99.99,,,-99.99,,2013-03-13 09:23:00,
2013-03-13 05:32:00,42.0,29.0,-100.00,West,265,0.0,4.0,60,-99.99,,,-99.99,,2013-03-13 09:32:00,
2013-03-13 06:22:00,40.0,32.0,-100.00,WSW,255,0.0,1.0,74,-99.99,,,-99.99,,2013-03-13 10:22:00,
2013-03-13 06:32:00,40.0,33.0,-100.00,WSW,250,0.0,1.0,76,-99.99,,,-99.99,,2013-03-13 10:32:00,
2013-03-13 06:42:00,39.0,33.0,-100.00,SW,235,0.0,1.0,78,-99.99,,,-99.99,,2013-03-13 10:42:00,
2013-03-13 06:52:00,39.0,33.0,-100.00,ENE,70,2.0,4.0,81,-99.99,,,-99.99,,2013-03-13 10:52:00,
2013-03-13 07:02:00,39.0,33.0,-100.00,ENE,70,0.0,3.0,81,-99.99,,,-99.99,,2013-03-13 11:02:00,
2013-03-13 07:13:00,38.0,34.0,-100.00,SSE,160,0.0,0.0,83,-99.99,,,-99.99,,2013-03-13 11:13:00,
2013-03-13 07:22:00,38.0,34.0,-100.00,WSW,240,1.0,3.0,85,-99.99,,,-99.99,,2013-03-13 11:22:00,
2013-03-13 07:32:00,38.0,34.0,-100.00,WNW,295,0.0,1.0,86,-99.99,,,-99.99,,2013-03-13 11:32:00,
2013-03-13 07:42:00,38.0,34.0,-100.00,East,100,0.0,2.0,87,-99.99,,,-99.99,,2013-03-13 11:42:00,
2013-03-13 07:52:00,38.0,35.0,-100.00,SSW,205,0.0,1.0,88,-99.99,,,-99.99,,2013-03-13 11:52:00,
2013-03-13 08:02:00,37.0,34.0,-100.00,WSW,240,1.0,3.0,89,-99.99,,,-99.99,,2013-03-13 12:02:00,
2013-03-13 08:12:00,37.0,35.0,-100.00,SW,235,1.0,1.0,90,-99.99,,,-99.99,,2013-03-13 12:12:00,
2013-03-13 08:22:00,37.0,34.0,-100.00,SW,215,0.0,1.0,90,-99.99,,,-99.99,,2013-03-13 12:22:00,
2013-03-13 08:32:00,37.0,34.0,-100.00,SW,215,0.0,1.0,90,-99.99,,,-99.99,,2013-03-13 12:32:00,
2013-03-13 08:42:00,37.0,35.0,-100.00,South,185,1.0,2.0,90,-99.99,,,-99.99,,2013-03-13 12:42:00,
2013-03-13 08:52:00,39.0,35.0,-100.00,SW,230,1.0,3.0,85,-99.99,,,-99.99,,2013-03-13 12:52:00,
2013-03-13 09:02:00,40.0,34.0,-100.00,WSW,245,2.0,4.0,79,-99.99,,,-99.99,,2013-03-13 13:02:00,
2013-03-13 09:12:00,42.0,34.0,-100.00,WSW,250,4.0,6.0,72,-99.99,,,-99.99,,2013-03-13 13:12:00,
2013-03-13 09:22:00,43.0,33.0,-100.00,WSW,250,4.0,9.0,66,-99.99,,,-99.99,,2013-03-13 13:22:00,
2013-03-13 09:33:00,44.0,32.0,-100.00,SW,235,3.0,9.0,63,-99.99,,,-99.99,,2013-03-13 13:33:00,
2013-03-13 09:43:00,46.0,33.0,-100.00,WSW,255,4.0,8.0,60,-99.99,,,-99.99,,2013-03-13 13:43:00,
2013-03-13 09:52:00,47.0,32.0,-100.00,West,265,4.0,9.0,56,-99.99,,,-99.99,,2013-03-13 13:52:00,
2013-03-13 10:03:00,47.0,32.0,-100.00,WNW,285,4.0,16.0,54,-99.99,,,-99.99,,2013-03-13 14:03:00,
2013-03-13 10:12:00,49.0,32.0,-100.00,WNW,295,4.0,9.0,52,-99.99,,,-99.99,,2013-03-13 14:12:00,
2013-03-13 10:22:00,50.0,32.0,-100.00,West,275,4.0,10.0,50,-99.99,,,-99.99,,2013-03-13 14:22:00,
2013-03-13 10:33:00,51.0,32.0,-100.00,WSW,255,6.0,10.0,48,-99.99,,,-99.99,,2013-03-13 14:33:00,
2013-03-13 10:42:00,51.0,31.0,-100.00,NW,305,6.0,11.0,46,-99.99,,,-99.99,,2013-03-13 14:42:00,
2013-03-13 10:52:00,52.0,31.0,-100.00,West,260,8.0,11.0,45,-99.99,,,-99.99,,2013-03-13 14:52:00,
2013-03-13 11:03:00,52.0,30.0,-100.00,West,270,9.0,17.0,43,-99.99,,,-99.99,,2013-03-13 15:03:00,
2013-03-13 11:12:00,53.0,30.0,-100.00,West,260,10.0,15.0,41,-99.99,,,-99.99,,2013-03-13 15:12:00,
2013-03-13 11:22:00,54.0,30.0,-100.00,NW,310,4.0,11.0,40,-99.99,,,-99.99,,2013-03-13 15:22:00,
2013-03-13 11:32:00,55.0,31.0,-100.00,West,270,6.0,14.0,39,-99.99,,,-99.99,,2013-03-13 15:32:00,
2013-03-13 11:43:00,52.0,27.0,-100.00,WNW,300,6.0,16.0,38,-99.99,,,-99.99,,2013-03-13 15:43:00,
2013-03-13 11:52:00,53.0,28.0,-100.00,North,0,6.0,18.0,37,-99.99,,,-99.99,,2013-03-13 15:52:00,
2013-03-13 12:03:00,55.0,29.0,-100.00,WNW,285,4.0,13.0,37,-99.99,,,-99.99,,2013-03-13 16:03:00,
2013-03-13 12:12:00,53.0,26.0,-100.00,NW,320,6.0,16.0,35,-99.99,,,-99.99,,2013-03-13 16:12:00,
2013-03-13 12:22:00,54.0,27.0,-100.00,WNW,300,8.0,21.0,35,-99.99,,,-99.99,,2013-03-13 16:22:00,
2013-03-13 12:32:00,56.0,28.0,-100.00,WNW,290,2.0,16.0,34,-99.99,,,-99.99,,2013-03-13 16:32:00,
2013-03-13 12:42:00,56.0,27.0,-100.00,NW,315,4.0,14.0,32,-99.99,,,-99.99,,2013-03-13 16:42:00,
2013-03-13 12:52:00,56.0,27.0,-100.00,WSW,240,4.0,19.0,32,-99.99,,,-99.99,,2013-03-13 16:52:00,
2013-03-13 13:03:00,56.0,27.0,-100.00,WNW,295,7.0,18.0,32,-99.99,,,-99.99,,2013-03-13 17:03:00,
2013-03-13 13:12:00,57.0,26.0,-100.00,NW,325,7.0,18.0,30,-99.99,,,-99.99,,2013-03-13 17:12:00,
2013-03-13 13:23:00,58.0,26.0,-100.00,West,270,8.0,21.0,30,-99.99,,,-99.99,,2013-03-13 17:23:00,
2013-03-13 13:33:00,58.0,26.0,-100.00,West,280,6.0,16.0,29,-99.99,,,-99.99,,2013-03-13 17:33:00,
2013-03-13 13:42:00,58.0,25.0,-100.00,WSW,255,8.0,18.0,28,-99.99,,,-99.99,,2013-03-13 17:42:00,
2013-03-13 13:53:00,56.0,24.0,-100.00,NNW,345,5.0,21.0,28,-99.99,,,-99.99,,2013-03-13 17:53:00,
2013-03-13 14:03:00,58.0,24.0,-100.00,West,280,6.0,18.0,27,-99.99,,,-99.99,,2013-03-13 18:03:00,
2013-03-13 14:13:00,56.0,23.0,-100.00,North,350,9.0,20.0,27,-99.99,,,-99.99,,2013-03-13 18:13:00,
2013-03-13 14:22:00,56.0,23.0,-100.00,NNW,330,12.0,22.0,27,-99.99,,,-99.99,,2013-03-13 18:22:00,
2013-03-13 14:33:00,57.0,24.0,-100.00,NW,310,8.0,19.0,27,-99.99,,,-99.99,,2013-03-13 18:33:00,
2013-03-13 14:42:00,57.0,24.0,-100.00,North,0,6.0,16.0,27,-99.99,,,-99.99,,2013-03-13 18:42:00,
2013-03-13 14:52:00,58.0,24.0,-100.00,North,0,6.0,16.0,27,-99.99,,,-99.99,,2013-03-13 18:52:00,
2013-03-13 15:03:00,58.0,24.0,-100.00,NW,310,6.0,15.0,27,-99.99,,,-99.99,,2013-03-13 19:03:00,
2013-03-13 15:12:00,55.0,22.0,-100.00,NNW,330,11.0,27.0,27,-99.99,,,-99.99,,2013-03-13 19:12:00,
2013-03-13 15:22:00,56.0,24.0,-100.00,WNW,295,6.0,16.0,28,-99.99,,,-99.99,,2013-03-13 19:22:00,
2013-03-13 15:32:00,56.0,23.0,-100.00,West,265,6.0,21.0,28,-99.99,,,-99.99,,2013-03-13 19:32:00,
2013-03-13 15:43:00,57.0,23.0,-100.00,NNW,330,9.0,22.0,27,-99.99,,,-99.99,,2013-03-13 19:43:00,
2013-03-13 15:53:00,57.0,23.0,-100.00,NW,320,9.0,19.0,27,-99.99,,,-99.99,,2013-03-13 19:53:00,
2013-03-13 16:02:00,57.0,23.0,-100.00,NNW,330,9.0,19.0,27,-99.99,,,-99.99,,2013-03-13 20:02:00,
2013-03-13 16:12:00,58.0,23.0,-100.00,West,270,6.0,19.0,26,-99.99,,,-99.99,,2013-03-13 20:12:00,
2013-03-13 16:22:00,57.0,23.0,-100.00,NW,325,7.0,23.0,27,-99.99,,,-99.99,,2013-03-13 20:22:00,
2013-03-13 16:32:00,57.0,24.0,-100.00,NW,325,7.0,14.0,27,-99.99,,,-99.99,,2013-03-13 20:32:00,
2013-03-13 16:42:00,56.0,23.0,-100.00,NW,315,11.0,21.0,27,-99.99,,,-99.99,,2013-03-13 20:42:00,
2013-03-13 16:52:00,58.0,23.0,-100.00,WSW,250,4.0,17.0,26,-99.99,,,-99.99,,2013-03-13 20:52:00,
2013-03-13 17:02:00,56.0,22.0,-100.00,NNW,335,12.0,22.0,26,-99.99,,,-99.99,,2013-03-13 21:02:00,
2013-03-13 17:12:00,58.0,23.0,-100.00,West,275,11.0,21.0,26,-99.99,,,-99.99,,2013-03-13 21:12:00,
2013-03-13 17:22:00,57.0,23.0,-100.00,NNW,330,5.0,16.0,26,-99.99,,,-99.99,,2013-03-13 21:22:00,
2013-03-13 17:33:00,57.0,23.0,-100.00,NNW,330,9.0,18.0,26,-99.99,,,-99.99,,2013-03-13 21:33:00,
2013-03-13 17:42:00,56.0,21.0,-100.00,NW,310,8.0,21.0,26,-99.99,,,-99.99,,2013-03-13 21:42:00,
2013-03-13 17:52:00,55.0,21.0,-100.00,NNW,335,11.0,23.0,26,-99.99,,,-99.99,,2013-03-13 21:52:00,
2013-03-13 18:02:00,55.0,21.0,-100.00,North,0,10.0,19.0,26,-99.99,,,-99.99,,2013-03-13 22:02:00,
2013-03-13 18:12:00,55.0,21.0,-100.00,NW,305,7.0,19.0,26,-99.99,,,-99.99,,2013-03-13 22:12:00,
2013-03-13 18:22:00,54.0,20.0,-100.00,NNW,340,9.0,16.0,26,-99.99,,,-99.99,,2013-03-13 22:22:00,
2013-03-13 18:32:00,54.0,21.0,-100.00,North,0,9.0,19.0,27,-99.99,,,-99.99,,2013-03-13 22:32:00,
2013-03-13 18:42:00,54.0,21.0,-100.00,North,10,9.0,16.0,27,-99.99,,,-99.99,,2013-03-13 22:42:00,
2013-03-13 18:52:00,54.0,21.0,-100.00,North,10,9.0,16.0,27,-99.99,,,-99.99,,2013-03-13 22:52:00,
2013-03-13 19:02:00,52.0,19.0,-100.00,NNW,335,9.0,19.0,27,-99.99,,,-99.99,,2013-03-13 23:02:00,
2013-03-13 19:12:00,51.0,19.0,-100.00,NW,325,10.0,19.0,27,-99.99,,,-99.99,,2013-03-13 23:12:00,
2013-03-13 19:22:00,51.0,19.0,-100.00,NNW,330,9.0,18.0,27,-99.99,,,-99.99,,2013-03-13 23:22:00,
2013-03-13 19:32:00,50.0,19.0,-100.00,NW,315,11.0,20.0,28,-99.99,,,-99.99,,2013-03-13 23:32:00,
2013-03-13 19:42:00,50.0,18.0,-100.00,North,10,4.0,18.0,28,-99.99,,,-99.99,,2013-03-13 23:42:00,
2013-03-13 19:52:00,49.0,18.0,-100.00,North,5,7.0,16.0,29,-99.99,,,-99.99,,2013-03-13 23:52:00,
2013-03-13 20:02:00,48.0,18.0,-100.00,NNW,335,4.0,19.0,30,-99.99,,,-99.99,,2013-03-14 00:02:00,
2013-03-13 20:13:00,48.0,18.0,-100.00,North,0,10.0,16.0,30,-99.99,,,-99.99,,2013-03-14 00:13:00,
2013-03-13 20:22:00,47.0,17.0,-100.00,NNW,340,8.0,21.0,30,-99.99,,,-99.99,,2013-03-14 00:22:00,
2013-03-13 20:32:00,46.0,17.0,-100.00,NNW,330,5.0,18.0,30,-99.99,,,-99.99,,2013-03-14 00:32:00,
2013-03-13 20:42:00,46.0,17.0,-100.00,North,0,6.0,15.0,31,-99.99,,,-99.99,,2013-03-14 00:42:00,
2013-03-13 20:52:00,45.0,17.0,-100.00,NNE,30,4.0,20.0,32,-99.99,,,-99.99,,2013-03-14 00:52:00,
2013-03-13 21:03:00,45.0,17.0,-100.00,North,10,4.0,15.0,32,-99.99,,,-99.99,,2013-03-14 01:03:00,
2013-03-13 21:12:00,44.0,17.0,-100.00,North,0,7.0,16.0,33,-99.99,,,-99.99,,2013-03-14 01:12:00,
2013-03-13 21:23:00,44.0,17.0,-100.00,WNW,290,2.0,16.0,33,-99.99,,,-99.99,,2013-03-14 01:23:00,
2013-03-13 21:32:00,44.0,16.0,-100.00,NW,315,6.0,17.0,33,-99.99,,,-99.99,,2013-03-14 01:32:00,
2013-03-13 21:42:00,44.0,17.0,-100.00,WNW,285,4.0,16.0,34,-99.99,,,-99.99,,2013-03-14 01:42:00,
2013-03-13 21:52:00,44.0,17.0,-100.00,WNW,285,4.0,16.0,34,-99.99,,,-99.99,,2013-03-14 01:52:00,
2013-03-13 22:02:00,43.0,17.0,-100.00,NW,315,4.0,15.0,35,-99.99,,,-99.99,,2013-03-14 02:02:00,
2013-03-13 22:12:00,42.0,17.0,-100.00,NNW,330,6.0,14.0,35,-99.99,,,-99.99,,2013-03-14 02:12:00,
2013-03-13 22:22:00,42.0,17.0,-100.00,NNW,345,3.0,9.0,36,-99.99,,,-99.99,,2013-03-14 02:22:00,
2013-03-13 22:33:00,42.0,17.0,-100.00,NNE,25,1.0,9.0,36,-99.99,,,-99.99,,2013-03-14 02:33:00,
2013-03-13 22:42:00,42.0,17.0,-100.00,NNE,25,1.0,9.0,36,-99.99,,,-99.99,,2013-03-14 02:42:00,
2013-03-13 22:51:00,42.0,17.0,-100.00,NNE,25,1.0,9.0,36,-99.99,,,-99.99,,2013-03-14 02:51:00,
2013-03-13 23:02:00,41.0,17.0,-100.00,NW,320,5.0,9.0,37,-99.99,,,-99.99,,2013-03-14 03:02:00,
2013-03-13 23:12:00,41.0,18.0,-100.00,North,5,1.0,8.0,38,-99.99,,,-99.99,,2013-03-14 03:12:00,
2013-03-13 23:23:00,41.0,17.0,-100.00,North,0,2.0,5.0,38,-99.99,,,-99.99,,2013-03-14 03:23:00,
2013-03-13 23:32:00,41.0,17.0,-100.00,WNW,295,1.0,4.0,38,-99.99,,,-99.99,,2013-03-14 03:32:00,
2013-03-13 23:42:00,40.0,17.0,-100.00,North,0,1.0,4.0,39,-99.99,,,-99.99,,2013-03-14 03:42:00,
2013-03-13 23:52:00,40.0,18.0,-100.00,NE,45,1.0,4.0,40,-99.99,,,-99.99,,2013-03-14 03:52:00,